This is the latest recevied weather packets stored in our database for station/object K5NWZ. If no packets are shown the sender has not sent any weather packets the latest 10 day(s).
| Time | Temp. | Humidity | Pressure | Rain* | Wind** | Luminosity | Snow |
|---|---|---|---|---|---|---|---|
| 1787371621 | 23.89° C | 45% | 1032.6 hPa | 0 mm | - | 0 W/m² | - |
| 1787371316 | 23.89° C | 46% | 1032.5 hPa | 0 mm | - | 0 W/m² | - |
| 1787371016 | 23.89° C | 46% | 1032.5 hPa | 0 mm | - | 0 W/m² | - |
| 1787370712 | 24.44° C | 45% | 1032 hPa | 0 mm | - | 0 W/m² | - |
| 1787370411 | 25° C | 43% | 1031.9 hPa | 0 mm | - | 0 W/m² | - |
| 1787370107 | 24.44° C | 44% | 1031.8 hPa | 0 mm | - | 0 W/m² | - |
| 1787369802 | 24.44° C | 45% | 1032 hPa | 0 mm | - | 0 W/m² | - |
| 1787369500 | 24.44° C | 45% | 1031.9 hPa | 0 mm | - | 0 W/m² | - |
| 1787369196 | 24.44° C | 45% | 1031.9 hPa | 0 mm | - | 0 W/m² | - |
| 1787368891 | 24.44° C | 45% | 1031.7 hPa | 0 mm | - | 0 W/m² | - |
| 1787368591 | 25° C | 44% | 1031.8 hPa | 0 mm | - | 0 W/m² | - |
| 1787368286 | 25° C | 43% | 1031.5 hPa | 0 mm | - | 0 W/m² | - |
| 1787367981 | 25.56° C | 43% | 1031.3 hPa | 0 mm | - | 0 W/m² | - |
| 1787367678 | 25.56° C | 40% | 1031.3 hPa | 0 mm | - | 0 W/m² | - |
| 1787367377 | 25.56° C | 39% | 1031.3 hPa | 0 mm | - | 0 W/m² | - |
| 1787367072 | 25.56° C | 39% | 1031.3 hPa | 0 mm | - | 0 W/m² | - |
| 1787366771 | 25.56° C | 39% | 1031.3 hPa | 0 mm | - | 0 W/m² | - |
| 1787366471 | 25.56° C | 39% | 1031.5 hPa | 0 mm | - | 0 W/m² | - |
| 1787366167 | 26.11° C | 39% | 1031.3 hPa | 0 mm | - | 0 W/m² | - |
| 1787365863 | 26.11° C | 38% | 1031.2 hPa | 0 mm | - | 0 W/m² | - |
| 1787365562 | 26.67° C | 38% | 1031.1 hPa | 0 mm | - | 0 W/m² | - |
| 1787365258 | 26.67° C | 38% | 1031.2 hPa | 0 mm | - | 0 W/m² | - |
| 1787364953 | 27.22° C | 36% | 1031.1 hPa | 0 mm | - | 0 W/m² | - |
| 1787364649 | 27.78° C | 34% | 1031.2 hPa | 0 mm | - | 0 W/m² | - |
| 1787364344 | 28.33° C | 34% | 1031.3 hPa | 0 mm | - | 0 W/m² | - |
* Rain latest hour (hover to see other rain measurements)
** Current wind speed in m/s (hover to see current wind gust speed)